Total_Precipitation_Accumulation
0.40 0.63 1.09 1.43 1.50 0.96 0.60 0.40 0.28 0.23 0.23 0.14 0.07 0.06 0.16 0.33 0.54 0.73 0.55 0.47 0.35 0.30 0.24 0.29 0.41 0.37 0.31 0.34 0.42 0.51 0.55 0.66 0.55 0.45 0.37 0.29 0.22 0.21 0.20 0.15 0.17 0.22 0.17 0.14 0.21 0.33 0.37 0.41 0.45
0.56 1.12 1.65 2.04 1.56 0.74 0.57 0.42 0.37 0.29 0.19 0.14 0.08 0.05 0.10 0.11 0.12 0.26 0.56 0.65 0.38 0.31 0.28 0.35 0.45 0.41 0.41 0.46 0.49 0.54 0.61 0.71 0.63 0.50 0.38 0.28 0.24 0.23 0.22 0.31 0.37 0.27 0.14 0.12 0.19 0.33 0.36 0.36 0.43
0.75 1.50 2.16 1.89 1.03 0.62 0.65 0.51 0.41 0.26 0.16 0.13 0.08 0.05 0.11 0.18 0.21 0.44 0.70 0.62 0.44 0.34 0.35 0.50 0.59 0.51 0.50 0.57 0.66 0.67 0.72 0.75 0.67 0.52 0.34 0.30 0.30 0.33 0.39 0.47 0.39 0.22 0.13 0.12 0.17 0.28 0.32 0.28 0.29
0.93 1.65 1.75 1.24 0.85 0.63 0.63 0.54 0.34 0.27 0.16 0.09 0.06 0.08 0.13 0.18 0.29 0.52 0.59 0.53 0.48 0.39 0.34 0.46 0.59 0.54 0.55 0.64 0.77 0.76 0.78 0.83 0.77 0.59 0.42 0.37 0.38 0.36 0.39 0.46 0.39 0.22 0.12 0.11 0.15 0.24 0.28 0.27 0.25
0.99 1.40 1.43 1.07 0.82 0.66 0.56 0.45 0.28 0.25 0.17 0.11 0.06 0.16 0.28 0.35 0.36 0.45 0.58 0.64 0.54 0.44 0.37 0.41 0.54 0.52 0.56 0.71 0.83 0.85 0.87 0.89 0.84 0.64 0.53 0.50 0.46 0.41 0.44 0.44 0.38 0.23 0.15 0.13 0.15 0.20 0.24 0.23 0.25
1.11 1.23 1.45 1.26 0.97 0.77 0.56 0.38 0.23 0.22 0.18 0.15 0.13 0.23 0.33 0.45 0.46 0.48 0.51 0.57 0.58 0.56 0.47 0.42 0.54 0.59 0.59 0.68 0.75 0.82 0.88 0.91 0.86 0.67 0.60 0.58 0.54 0.49 0.47 0.46 0.40 0.29 0.24 0.20 0.18 0.19 0.20 0.19 0.22
1.05 1.15 1.27 1.05 0.96 0.97 0.63 0.32 0.25 0.24 0.23 0.20 0.19 0.32 0.36 0.47 0.40 0.53 0.58 0.59 0.66 0.65 0.60 0.53 0.54 0.59 0.69 0.77 0.82 0.84 0.88 0.91 0.93 0.79 0.70 0.67 0.58 0.49 0.46 0.44 0.39 0.34 0.31 0.25 0.21 0.19 0.17 0.16 0.20
0.71 0.77 0.88 0.90 0.86 0.86 0.54 0.25 0.19 0.17 0.18 0.12 0.16 0.30 0.39 0.40 0.39 0.50 0.59 0.60 0.61 0.63 0.63 0.58 0.60 0.68 0.68 0.74 0.92 0.99 1.01 1.04 1.07 0.93 0.80 0.74 0.60 0.50 0.48 0.40 0.38 0.40 0.42 0.39 0.32 0.26 0.22 0.19 0.22
0.70 0.77 0.99 1.16 0.90 0.68 0.37 0.25 0.17 0.13 0.12 0.10 0.11 0.19 0.26 0.30 0.39 0.48 0.58 0.59 0.61 0.58 0.58 0.58 0.61 0.73 0.78 0.76 0.86 1.12 1.16 1.19 1.16 1.02 0.92 0.80 0.61 0.51 0.50 0.43 0.53 0.52 0.51 0.53 0.50 0.43 0.33 0.24 0.22
0.84 0.99 1.18 1.03 0.60 0.43 0.32 0.26 0.18 0.15 0.14 0.11 0.14 0.21 0.29 0.37 0.46 0.51 0.54 0.57 0.59 0.61 0.56 0.55 0.54 0.60 0.69 0.74 0.85 1.01 1.00 1.01 1.00 1.14 1.05 0.92 0.87 0.74 0.45 0.49 0.64 0.72 0.72 0.65 0.57 0.54 0.37 0.22 0.14
0.75 0.85 0.70 0.64 0.44 0.30 0.24 0.20 0.18 0.18 0.20 0.16 0.18 0.22 0.31 0.41 0.50 0.54 0.57 0.56 0.59 0.57 0.52 0.47 0.44 0.44 0.50 0.63 0.80 0.90 1.01 1.11 1.07 1.03 1.03 1.00 0.88 0.69 0.56 0.58 0.58 0.61 0.62 0.51 0.50 0.44 0.30 0.22 0.18
0.62 0.52 0.43 0.34 0.25 0.24 0.26 0.21 0.18 0.17 0.19 0.16 0.17 0.23 0.32 0.37 0.45 0.48 0.51 0.51 0.49 0.50 0.52 0.46 0.36 0.36 0.38 0.46 0.55 0.66 0.80 0.92 0.95 0.81 0.77 0.85 0.87 0.75 0.61 0.61 0.58 0.57 0.57 0.59 0.59 0.53 0.41 0.33 0.27
0.69 0.53 0.38 0.34 0.31 0.27 0.24 0.23 0.17 0.14 0.18 0.18 0.21 0.27 0.33 0.39 0.45 0.48 0.44 0.44 0.42 0.47 0.53 0.49 0.41 0.39 0.37 0.41 0.43 0.44 0.63 0.80 0.90 0.92 0.79 0.77 0.78 0.76 0.69 0.58 0.59 0.53 0.55 0.58 0.58 0.56 0.51 0.48 0.40
0.60 0.47 0.41 0.38 0.33 0.24 0.21 0.20 0.16 0.19 0.22 0.20 0.19 0.23 0.29 0.37 0.43 0.44 0.42 0.42 0.41 0.44 0.53 0.53 0.51 0.51 0.46 0.40 0.40 0.42 0.51 0.63 0.71 0.86 0.88 0.82 0.74 0.71 0.73 0.67 0.68 0.68 0.65 0.64 0.61 0.57 0.61 0.57 0.46
0.33 0.38 0.38 0.33 0.30 0.26 0.23 0.21 0.17 0.25 0.26 0.22 0.19 0.19 0.23 0.30 0.34 0.36 0.37 0.37 0.41 0.42 0.44 0.45 0.46 0.54 0.54 0.52 0.50 0.50 0.59 0.61 0.68 0.74 0.76 0.83 0.74 0.67 0.73 0.75 0.74 0.75 0.75 0.74 0.74 0.71 0.73 0.64 0.55
0.29 0.40 0.50 0.40 0.34 0.34 0.30 0.23 0.19 0.27 0.25 0.23 0.22 0.22 0.22 0.24 0.28 0.31 0.34 0.34 0.37 0.36 0.37 0.42 0.41 0.48 0.56 0.61 0.64 0.69 0.71 0.75 0.82 0.79 0.76 0.76 0.72 0.69 0.78 0.79 0.81 0.86 0.78 0.75 0.80 0.84 0.84 0.77 0.69
0.46 0.42 0.42 0.38 0.32 0.30 0.28 0.20 0.20 0.25 0.22 0.20 0.20 0.21 0.21 0.23 0.26 0.29 0.31 0.32 0.33 0.34 0.35 0.39 0.43 0.49 0.55 0.60 0.71 0.81 0.89 0.97 1.11 1.08 1.03 0.97 0.85 0.86 0.93 0.96 0.98 1.00 1.01 0.93 0.81 0.82 0.86 0.90 0.84
0.54 0.32 0.25 0.24 0.24 0.22 0.21 0.19 0.19 0.21 0.19 0.17 0.16 0.15 0.18 0.22 0.25 0.28 0.30 0.32 0.34 0.34 0.35 0.40 0.47 0.55 0.65 0.80 1.02 1.26 1.33 1.51 1.73 1.68 1.53 1.34 1.17 1.13 1.22 1.19 1.16 1.20 1.27 1.26 1.03 1.05 1.00 0.92 0.91
0.32 0.21 0.15 0.15 0.18 0.16 0.14 0.13 0.14 0.14 0.13 0.13 0.12 0.12 0.12 0.13 0.17 0.20 0.22 0.25 0.24 0.24 0.28 0.35 0.40 0.50 0.62 0.84 1.17 1.60 1.82 1.95 1.96 1.99 1.89 1.68 1.46 1.46 1.60 1.55 1.54 1.52 1.48 1.42 1.35 1.43 1.37 1.12 1.00
0.20 0.15 0.12 0.10 0.11 0.09 0.06 0.06 0.06 0.07 0.07 0.08 0.09 0.09 0.09 0.11 0.12 0.11 0.13 0.15 0.14 0.15 0.17 0.27 0.33 0.42 0.56 0.85 1.17 1.52 1.88 1.96 1.98 1.99 1.95 1.81 1.69 1.70 1.73 1.89 1.96 1.93 1.99 1.95 1.75 1.83 1.84 1.53 1.29
0.17 0.16 0.15 0.11 0.08 0.06 0.04 0.04 0.04 0.04 0.05 0.06 0.06 0.07 0.08 0.10 0.11 0.09 0.08 0.09 0.11 0.11 0.12 0.18 0.24 0.39 0.67 1.01 1.33 1.53 1.82 1.95 2.01 1.96 1.97 2.00 1.95 1.84 1.86 1.96 2.09 2.10 2.15 2.20 2.25 2.17 2.22 2.01 1.65
0.17 0.13 0.09 0.07 0.06 0.05 0.04 0.06 0.04 0.06 0.10 0.12 0.13 0.13 0.15 0.17 0.14 0.12 0.09 0.07 0.08 0.09 0.11 0.14 0.20 0.40 0.74 1.08 1.34 1.59 1.94 2.05 2.03 2.06 2.04 2.06 2.08 2.03 2.09 2.11 2.19 2.20 2.19 2.26 2.36 2.30 2.37 2.40 2.04
0.12 0.09 0.07 0.06 0.06 0.04 0.03 0.05 0.05 0.08 0.15 0.21 0.23 0.23 0.23 0.20 0.15 0.12 0.10 0.09 0.10 0.10 0.13 0.20 0.34 0.52 0.78 0.99 1.24 1.60 1.86 1.98 2.14 2.08 2.05 2.06 2.11 2.13 2.16 2.21 2.34 2.31 2.25 2.24 2.45 2.47 2.51 2.42 2.35
0.07 0.06 0.06 0.07 0.07 0.06 0.03 0.07 0.13 0.17 0.19 0.21 0.22 0.23 0.23 0.20 0.16 0.16 0.15 0.15 0.16 0.18 0.24 0.33 0.49 0.64 0.85 1.02 1.22 1.41 1.67 1.82 1.97 2.07 2.01 2.00 2.04 2.14 2.04 1.97 2.09 2.13 2.14 2.15 2.32 2.46 2.54 2.49 2.52
0.03 0.06 0.11 0.13 0.16 0.12 0.07 0.16 0.28 0.23 0.18 0.19 0.20 0.21 0.23 0.24 0.26 0.30 0.31 0.34 0.41 0.44 0.48 0.56 0.65 0.76 0.87 0.97 1.06 1.13 1.30 1.47 1.54 1.71 1.79 1.91 1.92 1.97 1.99 1.89 1.88 1.89 1.84 1.85 1.97 2.03 2.09 2.21 2.34
0.01 0.03 0.11 0.15 0.15 0.15 0.17 0.36 0.41 0.27 0.23 0.22 0.23 0.25 0.29 0.37 0.43 0.53 0.61 0.69 0.76 0.75 0.74 0.81 0.86 0.84 0.83 0.87 0.94 0.97 1.04 1.13 1.21 1.26 1.30 1.48 1.64 1.68 1.75 1.73 1.67 1.70 1.74 1.73 1.79 1.80 1.81 1.83 1.90
0.01 0.03 0.06 0.13 0.12 0.13 0.20 0.43 0.44 0.32 0.31 0.31 0.32 0.33 0.42 0.61 0.71 0.81 0.91 0.92 0.93 0.90 0.85 0.86 0.89 0.86 0.84 0.84 0.84 0.80 0.79 0.86 0.97 0.99 1.06 1.13 1.23 1.26 1.31 1.40 1.46 1.53 1.58 1.62 1.73 1.78 1.78 1.72 1.70
0.03 0.07 0.13 0.26 0.34 0.30 0.31 0.48 0.52 0.44 0.39 0.37 0.41 0.49 0.65 0.91 1.06 1.19 1.27 1.17 1.10 1.09 1.13 1.02 0.93 0.85 0.82 0.82 0.82 0.76 0.73 0.77 0.81 0.82 0.88 0.87 0.89 0.90 0.95 1.07 1.24 1.42 1.53 1.58 1.63 1.65 1.71 1.73 1.70
0.10 0.16 0.24 0.37 0.45 0.57 0.70 0.85 0.68 0.58 0.58 0.65 0.75 0.83 1.00 1.26 1.43 1.52 1.53 1.43 1.23 1.10 1.09 1.04 0.93 0.82 0.71 0.70 0.76 0.76 0.71 0.72 0.77 0.76 0.71 0.65 0.68 0.74 0.84 0.89 1.04 1.19 1.33 1.50 1.63 1.64 1.63 1.64 1.63
0.22 0.37 0.50 0.74 0.74 0.67 0.87 1.09 0.84 0.69 0.71 0.74 0.80 0.92 1.10 1.22 1.30 1.34 1.30 1.29 1.18 1.08 1.00 0.95 0.85 0.71 0.65 0.70 0.73 0.75 0.67 0.61 0.64 0.64 0.65 0.57 0.55 0.59 0.67 0.80 0.97 1.10 1.17 1.20 1.28 1.35 1.36 1.37 1.41